Location: Unspecified
(0.0000°N, 0.0000°E)
Time: 00:46:01
(UTC+00:00)

Altair - All Passes

Search period start: 20 July 2019 00:00
Search period end: 30 July 2019 00:00
Orbit: 1501 x 1683 km, 47.2° (Epoch: 19 July)

Date Brightness Start Highest point End Pass type
(mag) Time Alt. Az. Time Alt. Az. Time Alt. Az.
20 Jul - 06:37:49 10° SSE 06:41:01 12° SE 06:44:10 10° ESE daylight
20 Jul - 08:36:46 10° SSW 08:46:18 69° SE 08:55:27 10° NE daylight
20 Jul - 10:43:51 10° W 10:50:50 23° NW 10:57:44 10° N daylight
20 Jul - 19:22:30 10° N 19:30:33 30° NE 19:38:48 10° ESE visible
20 Jul - 21:25:35 10° NW 21:35:11 61° SW 21:45:09 10° SSE visible
20 Jul - 23:39:28 10° SW 23:40:48 10° SW 23:42:08 10° SW night (unlit)
21 Jul - 08:11:40 10° SSW 08:21:08 62° SE 08:30:14 10° NE daylight
21 Jul - 10:18:10 10° WSW 10:25:38 27° NW 10:33:01 10° N daylight
21 Jul - 18:57:43 10° N 19:05:20 26° NE 19:13:08 10° ESE visible
21 Jul - 21:00:19 10° NW 21:10:00 68° SW 21:20:03 10° SSE visible
21 Jul - 23:11:52 10° WSW 23:15:27 12° SW 23:19:04 10° SSW visible
22 Jul - 07:46:36 10° SSW 07:55:58 55° SE 08:04:58 10° NE daylight
22 Jul - 09:52:32 10° WSW 10:00:27 30° NW 10:08:14 10° N daylight
22 Jul - 18:33:00 10° N 18:40:07 23° NE 18:47:22 10° E visible
22 Jul - 20:35:06 10° NW 20:44:49 75° SW 20:54:54 10° SE visible
22 Jul - 22:45:19 10° WSW 22:50:06 14° SW 22:54:59 10° SSW visible
23 Jul - 07:21:34 10° SSW 07:30:48 49° SE 07:39:40 10° ENE daylight
23 Jul - 09:26:59 10° WSW 09:35:17 34° NW 09:43:24 10° NNE daylight
23 Jul - 18:08:23 10° N 18:14:53 20° NE 18:21:29 10° E daylight
23 Jul - 20:09:55 10° NW 20:19:38 83° SW 20:29:44 10° SE visible
23 Jul - 22:19:07 10° W 22:24:48 17° SW 22:30:36 10° S visible
24 Jul - 06:56:33 10° SSW 07:05:37 44° SE 07:14:20 10° ENE daylight
24 Jul - 09:01:30 10° WSW 09:10:07 39° NW 09:18:31 10° NNE daylight
24 Jul - 17:43:51 10° N 17:49:38 17° NE 17:55:29 10° E daylight
24 Jul - 19:44:46 10° NW 19:54:27 89° NE 20:04:32 10° SE visible
24 Jul - 21:53:07 10° W 21:59:30 19° SW 22:06:02 10° S visible
25 Jul - 06:31:34 10° SSW 06:40:26 39° SE 06:48:57 10° ENE daylight
25 Jul - 08:36:03 10° WSW 08:44:58 44° NW 08:53:37 10° NNE daylight
25 Jul - 17:19:30 10° NNE 17:24:22 15° NE 17:29:18 10° ENE daylight
25 Jul - 19:19:38 10° NW 19:29:16 81° NE 19:39:18 10° SE visible
25 Jul - 21:27:16 10° W 21:34:13 21° SW 21:41:22 10° S visible
26 Jul - 06:06:37 10° SSW 06:15:14 35° SE 06:23:31 10° ENE daylight
26 Jul - 08:10:38 10° WSW 08:19:48 50° NW 08:28:40 10° NNE daylight
26 Jul - 16:55:26 10° NNE 16:59:06 13° NE 17:02:47 10° ENE daylight
26 Jul - 18:54:33 10° NNW 19:04:06 73° NE 19:14:02 10° SE visible
26 Jul - 21:01:31 10° W 21:08:58 24° SW 21:16:36 10° S visible
27 Jul - 05:41:42 10° S 05:50:01 31° SE 05:58:02 10° ENE visible
27 Jul - 07:45:17 10° SW 07:54:39 56° NW 08:03:41 10° NNE daylight
27 Jul - 16:32:14 10° NE 16:33:48 10° NE 16:35:22 10° NE daylight
27 Jul - 18:29:29 10° NNW 18:38:56 65° NE 18:48:44 10° SE visible
27 Jul - 20:35:52 10° WNW 20:43:42 27° SW 20:51:48 10° S visible
28 Jul - 05:16:51 10° S 05:24:48 28° SE 05:32:28 10° ENE visible
28 Jul - 07:19:56 10° SW 07:29:29 63° NW 07:38:41 10° NNE daylight
28 Jul - 18:04:28 10° NNW 18:13:45 58° NE 18:23:24 10° SE daylight
28 Jul - 20:10:17 10° WNW 20:18:28 31° SW 20:26:56 10° S visible
29 Jul - 04:52:01 10° S 04:59:33 24° SE 05:06:50 10° E visible
29 Jul - 06:54:39 10° SW 07:04:20 70° NW 07:13:39 10° NNE daylight
29 Jul - 09:06:26 10° WNW 09:09:19 12° NW 09:12:11 10° NNW daylight
29 Jul - 17:39:28 10° NNW 17:48:35 52° NE 17:58:03 10° SE daylight
29 Jul - 19:44:46 10° WNW 19:53:14 35° SW 20:02:01 10° SSE visible
